#timestamp,LO_Frequency,Hit,StdDev 
1580601615.6,286046996.6,N
1580601635.4,286046997.0,N
1580601655.3,286046999.2,N
1580601675.1,286046998.3,N
1580601676.0,286046998.3,N
1580601695.8,286046998.5,N
1580601715.7,286047001.2,N
1580601735.5,286046998.9,N
1580601755.3,286046998.8,N
1580601775.2,286046998.3,N
1580601795.0,286046998.7,N
1580601795.9,286046998.7,N
1580601815.8,286046999.2,N
1580601835.6,286046999.5,N
1580601855.4,286046999.1,N
1580601875.3,286046998.4,N
1580601895.1,286047001.2,N
1580601915.8,286046999.6,N
1580601935.7,286046998.4,N
1580601955.5,286046998.7,N
1580601975.4,286047000.6,N
1580601995.2,286047001.1,N
1580602015.0,286046999.9,N
1580602015.9,286046999.9,N
1580602035.8,286047000.5,N
1580602055.6,286047000.3,N
1580602075.4,286047002.8,N
1580602095.3,286047000.1,N
1580602115.1,286047000.4,N
1580602135.9,286047002.7,N
1580602155.7,286047002.1,N
1580602175.5,286047001.4,N
1580602195.4,286047002.0,N
1580602215.2,286046999.8,N
1580602235.0,286047001.9,N
1580602235.9,286047001.9,N
1580602255.8,286047003.9,N
1580602275.6,286047003.8,N
1580602295.5,286047003.8,N
1580602315.3,286047004.2,N
1580602335.1,286047003.9,N
1580602355.9,286047002.6,N
1580602375.7,286047004.2,N
1580602395.5,286047002.1,N
1580602415.4,286047002.3,N
1580602435.2,286047002.1,N
1580602455.1,286047000.1,N
1580602456.0,286047000.1,N
1580602475.8,286047002.1,N
1580602495.6,286047003.5,N
1580602515.5,286047004.1,N
1580602535.3,286047004.1,N
1580602555.2,286047003.9,N
1580602575.9,286047003.9,N
1580602595.7,286047003.8,N
1580602615.6,286047002.2,N
1580602635.4,286047002.6,N
1580602655.3,286047003.8,N
1580602675.1,286047003.1,N
1580602676.0,286047003.1,N
1580602695.8,286047004.4,Y
1580602715.7,286046999.3,P
1580602735.5,286046999.1,N
1580602755.3,286047000.5,N
1580602775.2,286047000.4,N
1580602795.0,286047000.5,N
1580602795.9,286047000.5,N
1580602815.8,286046998.3,N
1580602835.6,286046999.4,N
1580602855.4,286046996.6,N
1580602875.3,286046996.6,N
1580602895.1,286046997.8,N
1580602915.8,286046997.1,N
1580602935.7,286046995.1,N
1580602955.5,286046996.2,N
1580602975.4,286046994.9,N
1580602995.2,286046997.9,N
1580603015.0,286046995.6,N
1580603015.9,286046995.6,N
1580603035.8,286046995.1,N
1580603055.6,286046996.2,N
1580603075.4,286046994.5,N
1580603095.3,286046994.2,N
1580603115.1,286046992.1,Y
1580603135.9,286046995.4,P
1580603155.7,286046996.2,P
1580603175.5,286046997.4,N
1580603195.4,286046997.2,Y
1580603215.2,286046998.5,P
1580603235.1,286046999.8,N
1580603236.0,286046999.8,N
1580603255.8,286047000.3,N
1580603275.6,286047000.4,N
1580603295.5,286046999.9,N
1580603315.3,286047002.3,N
1580603335.1,286047002.5,N
1580603355.9,286047004.1,N
1580603375.7,286047001.4,N
1580603395.6,286047001.5,N
1580603415.4,286047002.0,N
1580603435.2,286047001.4,N
1580603455.1,286047002.7,N
1580603456.0,286047002.7,N
1580603475.8,286047001.9,N
1580603495.6,286047002.6,N
1580603515.5,286047002.5,N
1580603535.3,286047003.4,N
1580603555.2,286047004.2,N
1580603575.9,286047003.8,N
1580603595.7,286047003.5,N
1580603615.6,286047005.7,Y
1580603635.4,286047003.3,P
1580603655.2,286047003.1,P
1580603675.1,286047003.7,P
1580603676.0,286047003.7,Y
1580603695.8,286046998.1,P
1580603715.7,286047001.2,N
1580603735.5,286047000.5,N
1580603755.3,286047000.4,N
1580603775.2,286047004.3,N
1580603795.0,286047001.8,N
1580603795.9,286047001.8,N
1580603815.8,286047002.7,N
1580603835.6,286047002.2,N
1580603855.4,286047002.4,N
1580603875.3,286047002.8,N
1580603895.1,286047001.0,N
1580603915.8,286047000.8,N
1580603935.7,286046998.6,N
1580603955.5,286047001.2,N
1580603975.4,286047002.7,N
1580603995.2,286047003.9,N
1580604015.0,286047001.4,N
1580604015.9,286047001.4,N
1580604035.8,286046999.9,N
1580604055.6,286047001.1,N
1580604075.4,286047000.8,N
1580604095.3,286046999.1,N
1580604115.1,286046998.3,N
1580604135.9,286046997.7,N
1580604155.7,286046996.9,N
1580604175.5,286046999.3,N
1580604195.4,286047000.3,N
1580604215.2,286046999.8,N
1580604235.0,286046998.6,N
1580604235.9,286046998.6,N
1580604255.8,286046999.9,N
1580604275.6,286046998.7,N
1580604295.5,286046998.7,N
1580604315.3,286047000.5,N
1580604335.1,286047001.0,N
1580604355.9,286046999.2,N
1580604375.7,286046996.7,N
1580604395.6,286046996.5,N
1580604415.4,286047001.2,N
1580604435.2,286047000.8,N
1580604455.1,286047000.8,N
1580604456.0,286047000.8,N
1580604475.8,286047000.3,N
1580604495.6,286047003.8,N
1580604515.5,286047003.3,N
1580604535.3,286047001.8,N
1580604555.2,286047002.0,N
1580604575.9,286047001.4,N
1580604595.7,286047001.9,N
1580604615.6,286047000.1,N
1580604635.4,286046998.4,N
1580604655.3,286046998.4,N
1580604675.1,286046999.4,N
1580604676.0,286046999.4,N
1580604695.8,286046999.5,N
1580604715.7,286046996.9,N
1580604735.5,286047000.8,N
1580604785.4,286046998.3,E
1580604795.3,286047000.6,N
1580604815.1,286047003.5,P
1580604835.9,286047002.9,N
1580604855.7,286047002.0,N
1580604875.5,286047001.5,N
1580604895.4,286047000.7,N
1580604915.2,286046998.7,N
1580604935.1,286046994.9,Y
1580604936.0,286046994.9,P
1580604955.8,286046996.3,N
1580604975.6,286046997.9,N
1580604995.5,286046996.6,N
1580605015.3,286046997.0,N
1580605035.2,286046996.6,N
1580605055.9,286046996.6,N
1580605075.7,286047000.0,N
1580605095.6,286047001.8,N
1580605115.4,286047002.1,N
1580605135.2,286047001.5,N
1580605155.1,286047000.2,N
1580605156.0,286047000.2,N
1580605205.9,286046998.8,E
